Weather History for Joensuu, Finland

Change the Weather History Date:

Saturday, November 30, 2013

  Actual Average Record
Temperature  
Mean Temperature 17 °F -  
Max Temperature 28 °F - - ()
Min Temperature 6 °F - - ()
Degree Days  
Heating Degree Days 48    
Moisture  
Dew Point 19 °F    
Average Humidity 94    
Maximum Humidity 100    
Minimum Humidity 80    
Precipitation  
Precipitation 0.00 in 0.06 in - ()
Sea Level Pressure  
Sea Level Pressure 29.52 in    
Wind  
Wind Speed 6 mph ()    
Max Wind Speed 16 mph    
Max Gust Speed 30 mph    
Visibility 3.4 miles    
Events Fog , Snow    
T = Trace of Precipitation, MM = Missing Value Source: Averaged Metar Reports

Daily Weather History Graph

Daily Weather History Graph

Search for Another Location

Airport:

Trip Planner

Search our weather history database for the weather conditions in past years. The results will help you decide how hot, cold, wet, or windy it might be!

Date:

Astronomy

Nov. 30, 2013 Rise Set
Actual Time 8:59 AM EET 2:40 PM EET
Civil Twilight 7:56 AM EET 3:43 PM EET
Nautical Twilight 6:55 AM EET 4:44 PM EET
Astronomical Twilight 6:00 AM EET 5:39 PM EET
Moon 4:51 AM EET (11/30) 1:42 PM EET (11/30)
Length of Visible Light 7h 47m
Length of Day
5h 41m
Waning Crescent, 9% of the Moon is Illuminated
Nov 30
Waning Crescent
Dec 3
New
Dec 9
First Quarter
Dec 17
Full
Dec 25
Last Quarter

Hourly Weather History & Observations

Time (EET) Temp. Windchill Dew Point Humidity Pressure Visibility Wind Dir Wind Speed Gust Speed Precip Events Conditions
12:20 AM 10.4 °F - 8.6 °F 92% 29.71 in - Calm Calm - N/A   Clear
12:50 AM 8.6 °F - 6.8 °F 92% 29.71 in - Calm Calm - N/A   Clear
1:20 AM 8.6 °F - 6.8 °F 92% 29.68 in - Calm Calm - N/A   Clear
1:50 AM 6.8 °F - 5.0 °F 92% 29.68 in - Calm Calm - N/A   Clear
2:20 AM 6.8 °F - 5.0 °F 92% 29.68 in 6.2 mi SW 1.2 mph - N/A   Partly Cloudy
2:50 AM 10.4 °F - 8.6 °F 92% 29.68 in 6.2 mi SSE 1.2 mph - N/A   Mostly Cloudy
3:20 AM 10.4 °F - 8.6 °F 92% 29.68 in 0.2 mi ESE 1.2 mph - N/A Fog Light Freezing Fog
3:50 AM 8.6 °F - 6.8 °F 92% 29.68 in 6.2 mi South 2.3 mph - N/A   Scattered Clouds
4:20 AM 8.6 °F 2.0 °F 8.6 °F 100% 29.68 in - South 3.5 mph - N/A   Clear
4:50 AM 14.0 °F 6.5 °F 12.2 °F 93% 29.65 in - South 4.6 mph - N/A   Clear
5:20 AM 14.0 °F 8.2 °F 14.0 °F 100% 29.65 in - South 3.5 mph - N/A   Clear
5:50 AM 15.8 °F 8.6 °F 14.0 °F 93% 29.65 in - South 4.6 mph - N/A   Clear
6:20 AM 15.8 °F 8.6 °F 14.0 °F 93% 29.65 in - South 4.6 mph - N/A   Clear
6:50 AM 15.8 °F 10.2 °F 15.8 °F 100% 29.65 in - South 3.5 mph - N/A   Clear
7:20 AM 17.6 °F 12.3 °F 17.6 °F 100% 29.62 in - South 3.5 mph - N/A   Clear
7:50 AM 19.4 °F 11.5 °F 19.4 °F 100% 29.62 in 6.2 mi South 5.8 mph - N/A   Mostly Cloudy
8:20 AM 21.2 °F 13.6 °F 21.2 °F 100% 29.62 in 6.2 mi SSE 5.8 mph - N/A   Mostly Cloudy
8:50 AM 23.0 °F 15.8 °F 21.2 °F 93% 29.59 in 6.2 mi SSE 5.8 mph - N/A   Mostly Cloudy
9:20 AM 23.0 °F 14.7 °F 23.0 °F 100% 29.59 in 1.4 mi South 6.9 mph - N/A Snow Light Snow
9:50 AM 23.0 °F 13.9 °F 23.0 °F 100% 29.59 in 1.9 mi South 8.1 mph - N/A Snow Light Snow
10:20 AM 24.8 °F 14.6 °F 23.0 °F 93% 29.56 in - South 10.4 mph - N/A Snow Light Snow
10:50 AM 24.8 °F 15.3 °F 23.0 °F 93% 29.56 in 6.2 mi South 9.2 mph - N/A Snow Light Snow Grains
11:20 AM 24.8 °F 14.6 °F 23.0 °F 93% 29.53 in 3.1 mi SSW 10.4 mph - N/A Snow Light Snow
11:50 AM 24.8 °F 14.0 °F 23.0 °F 93% 29.50 in - South 11.5 mph - N/A Snow Light Snow
12:20 PM 24.8 °F 13.4 °F 24.8 °F 100% 29.50 in - SSW 12.7 mph - N/A Snow Light Snow
12:50 PM 24.8 °F 12.9 °F 24.8 °F 100% 29.47 in 0.8 mi South 13.8 mph - N/A Snow Snow
1:20 PM 24.8 °F 12.4 °F 24.8 °F 100% 29.44 in 0.8 mi SSW 15.0 mph - N/A Snow Light Snow
1:50 PM 24.8 °F 12.9 °F 24.8 °F 100% 29.42 in 0.4 mi South 13.8 mph - N/A Snow Snow
2:20 PM 26.6 °F 14.7 °F 24.8 °F 93% 29.39 in 0.3 mi South 15.0 mph - N/A Snow Heavy Snow
2:50 PM 26.6 °F 14.7 °F 24.8 °F 93% 29.39 in 0.4 mi South 15.0 mph - N/A Snow Snow
3:20 PM 26.6 °F 14.7 °F 26.6 °F 100% 29.36 in 0.9 mi SSW 15.0 mph - N/A Snow Snow
3:50 PM 26.6 °F 14.7 °F 24.8 °F 93% 29.36 in 0.8 mi SSW 15.0 mph - N/A Snow Light Snow
4:20 PM 26.6 °F 14.7 °F 26.6 °F 100% 29.36 in 0.6 mi SW 15.0 mph 29.9 mph N/A Snow Snow
4:50 PM 28.4 °F 19.1 °F 26.6 °F 93% 29.36 in 0.9 mi SW 10.4 mph - N/A Snow Snow
5:20 PM 28.4 °F 18.0 °F 26.6 °F 93% 29.36 in 1.1 mi WSW 12.7 mph - N/A Snow Snow
5:50 PM 28.4 °F 18.0 °F 26.6 °F 93% 29.36 in 1.9 mi WSW 12.7 mph - N/A Snow Light Snow
6:20 PM 28.4 °F 18.0 °F 26.6 °F 93% 29.39 in 6.2 mi West 12.7 mph - N/A   Mostly Cloudy
6:50 PM 28.4 °F 17.0 °F 24.8 °F 86% 29.39 in 6.2 mi WNW 15.0 mph - N/A   Partly Cloudy
7:20 PM 26.6 °F 14.3 °F 21.2 °F 80% 29.39 in - WNW 16.1 mph - N/A   Clear
7:50 PM 24.8 °F 15.3 °F 21.2 °F 86% 29.39 in 6.2 mi WNW 9.2 mph - N/A   Partly Cloudy
8:20 PM 24.8 °F 13.4 °F 21.2 °F 86% 29.39 in 6.2 mi West 12.7 mph - N/A   Scattered Clouds
8:50 PM 23.0 °F 10.6 °F 21.2 °F 93% 29.42 in 6.2 mi West 13.8 mph - N/A   Partly Cloudy
9:20 PM 23.0 °F 11.1 °F 19.4 °F 86% 29.42 in 6.2 mi WNW 12.7 mph - N/A   Partly Cloudy
9:50 PM 21.2 °F 10.1 °F 19.4 °F 93% 29.42 in - West 10.4 mph - N/A   Clear
10:20 PM 21.2 °F 9.5 °F 19.4 °F 93% 29.42 in - West 11.5 mph - N/A   Clear
10:50 PM 21.2 °F 10.1 °F 19.4 °F 93% 29.44 in - West 10.4 mph - N/A   Clear
11:20 PM 21.2 °F 10.9 °F 17.6 °F 86% 29.44 in - West 9.2 mph - N/A   Clear
11:50 PM 19.4 °F 9.5 °F 17.6 °F 93% 29.44 in - West 8.1 mph - N/A   Clear